Dewpoint
54 53 52 52 51 51 52 53 53 54 54 54 54 53 55 56 55 54 50 49 45 45 47 48 44 43 39 36 29 28 31 31 30 32 36 37 36 39 35 36 39 37 36 35 34 31 28 43 44 39 42 51 52 53
54 53 51 52 52 51 53 53 53 54 54 54 54 54 55 56 55 55 48 47 47 43 43 50 49 48 46 41 36 37 34 35 35 36 37 41 37 39 34 32 41 39 39 39 40 38 41 44 45 46 50 53 54 56
54 53 53 52 52 52 53 52 53 54 55 55 55 55 55 56 54 54 49 47 47 48 48 45 44 35 45 39 36 32 34 39 37 38 39 38 33 39 35 36 37 38 43 41 38 41 43 46 47 48 50 50 53 57
54 53 53 52 52 53 52 52 53 54 55 55 55 55 56 55 54 54 50 48 45 44 44 43 46 44 42 43 34 30 37 39 39 36 33 31 31 35 34 34 37 39 39 40 40 43 45 45 42 43 47 50 52 56
52 53 53 52 52 53 51 52 53 54 54 55 55 55 55 54 54 55 52 50 47 43 42 43 44 42 44 44 36 36 39 39 36 31 30 29 37 36 34 32 33 37 32 38 37 41 40 41 41 44 46 47 49 51
50 53 53 52 52 53 52 52 53 54 54 55 55 53 53 54 54 46 42 48 48 47 44 42 46 46 44 40 31 34 35 39 37 35 34 37 41 32 31 29 32 35 36 38 39 43 40 41 42 44 45 45 47 52
50 52 52 52 52 53 52 52 53 55 55 55 53 53 53 54 48 44 41 46 47 45 45 43 43 45 44 35 37 36 37 39 36 37 35 38 37 36 34 34 35 38 40 43 44 43 42 42 40 43 46 47 48 48
51 53 52 52 52 52 51 52 53 54 54 54 53 53 54 52 48 43 43 48 46 42 49 43 40 44 43 35 35 39 36 37 38 37 41 39 41 39 32 31 35 40 44 42 41 41 41 42 44 44 46 46 47 50
52 52 51 52 52 51 50 50 50 52 53 53 53 53 48 46 42 41 52 50 45 46 40 38 35 40 48 41 39 40 38 33 40 37 37 40 40 38 37 37 44 42 41 41 42 43 42 42 43 43 44 46 46 46
52 51 51 51 52 51 50 50 50 50 50 52 51 45 39 44 50 54 49 48 46 44 47 44 46 42 49 44 42 41 40 36 36 38 41 39 39 41 41 41 45 43 41 42 40 41 42 43 43 43 44 45 45 44
50 50 51 52 51 50 50 50 49 49 51 49 45 44 49 53 46 45 43 41 43 40 41 44 44 40 48 46 43 46 39 39 35 36 38 38 37 41 46 44 47 44 43 43 41 42 44 44 44 43 44 45 45 45
50 50 51 52 52 50 50 50 49 49 49 49 49 50 51 49 44 39 40 40 41 37 39 37 40 40 48 51 48 48 44 44 37 44 41 36 42 43 46 46 48 46 45 45 44 44 46 45 44 44 45 46 45 45
50 50 50 52 52 51 50 50 49 49 50 51 51 48 44 41 34 35 34 37 36 41 39 42 43 45 47 48 46 46 43 41 45 39 38 39 40 45 46 48 49 48 47 47 48 47 46 45 46 46 46 47 46 46
49 50 50 51 52 51 51 50 49 50 50 48 46 37 39 36 39 38 39 39 40 42 44 41 45 43 46 43 44 40 42 42 38 36 36 40 42 44 48 50 50 48 47 47 49 47 46 46 47 48 47 46 45 44
50 50 50 51 52 51 51 50 50 51 49 46 46 38 41 41 43 44 45 46 47 48 46 43 46 45 45 42 44 42 41 38 39 37 40 41 41 49 49 49 49 48 48 48 47 46 47 47 46 46 45 44 44 44
50 50 50 51 51 51 50 50 50 50 48 46 46 43 44 42 42 44 46 48 50 49 49 48 44 42 41 43 42 39 38 37 35 40 42 44 47 50 49 49 48 49 48 48 46 47 47 46 45 44 43 43 43 43
50 49 51 51 51 51 50 48 48 47 46 45 43 44 44 43 42 43 46 49 52 49 45 47 42 41 44 40 38 41 37 35 43 49 50 49 49 50 50 49 48 48 48 46 46 45 45 44 43 42 41 43 43 43
48 50 51 51 50 50 48 48 47 44 43 43 40 41 43 44 44 46 47 51 50 49 47 46 47 41 40 39 39 41 45 45 49 50 51 50 50 51 52 49 49 48 48 48 46 45 43 42 41 41 41 43 42 41
50 51 51 50 50 48 45 46 47 44 43 42 43 43 43 44 45 44 49 52 52 52 50 46 43 41 42 44 44 46 47 47 48 50 51 51 51 53 50 48 48 48 48 47 46 44 43 42 41 41 42 42 41 42
50 50 51 51 50 47 45 44 48 44 43 43 43 43 43 42 43 44 47 50 50 48 45 42 43 43 43 46 47 46 45 50 50 50 50 53 53 50 50 49 49 49 48 47 47 44 44 43 42 42 42 42 41 41
50 50 50 50 48 47 46 45 43 44 44 43 44 45 44 46 46 48 47 49 46 45 43 44 45 45 46 48 48 48 48 51 51 50 50 51 53 51 50 50 49 49 48 47 46 45 43 43 42 43 42 42 42 41
50 51 49 50 47 46 46 46 45 45 44 43 43 43 42 43 43 45 49 46 46 45 46 45 46 45 46 48 49 51 51 51 51 51 48 51 52 52 50 50 49 48 48 47 46 45 44 43 43 43 42 42 41 41
50 50 49 47 44 42 41 45 42 42 39 40 43 40 40 42 44 48 44 45 46 47 46 46 46 47 47 49 50 51 53 52 51 50 50 51 52 53 52 50 50 48 47 46 46 45 43 41 41 42 42 41 38 36
51 48 46 45 43 39 42 42 44 43 43 41 39 39 41 42 45 43 41 43 45 47 48 48 49 48 48 48 48 49 51 51 51 51 52 53 52 52 52 50 49 48 48 46 43 43 43 42 41 39 40 39 37 35
42 40 43 36 45 43 40 42 43 42 40 41 41 40 41 45 41 41 41 44 47 49 50 50 50 49 47 47 48 48 49 51 50 49 51 54 52 52 52 52 52 48 47 45 45 42 41 42 42 40 38 37 36 35
36 39 39 41 40 41 42 41 42 40 40 40 41 44 45 43 41 41 46 49 48 49 50 50 52 50 51 51 49 50 51 53 52 50 51 53 53 51 50 48 47 48 49 46 46 43 41 41 40 40 39 37 37 35
36 38 41 44 43 45 42 43 45 42 41 41 43 44 44 41 42 46 48 49 50 51 52 53 52 51 51 52 51 51 52 54 54 53 55 55 56 55 54 52 51 53 50 45 44 43 42 40 39 38 38 37 37 36
41 41 39 44 42 44 41 41 40 41 42 44 43 43 43 44 42 46 48 50 53 55 56 55 53 52 52 52 52 52 52 53 53 53 52 52 53 55 56 54 53 45 48 47 43 45 42 40 39 37 37 36 35 36
41 43 42 40 41 44 44 43 42 44 45 44 43 44 45 48 52 53 54 54 53 53 52 49 49 49 49 46 46 48 50 50 51 49 47 48 49 49 48 48 42 44 46 41 40 43 42 43 39 37 36 35 35 37
38 41 38 37 40 43 46 49 49 49 49 50 50 50 50 51 52 52 51 48 48 48 49 46 46 46 45 43 44 46 48 48 47 48 47 44 44 46 48 48 47 48 49 49 49 47 45 47 43 41 37 36 36 36
38 37 37 37 40 47 47 50 52 52 52 51 51 49 48 51 52 49 46 46 46 46 45 45 46 47 46 45 44 45 45 47 50 51 52 50 51 50 50 51 50 49 48 49 49 47 45 45 45 42 37 36 36 36
36 35 35 35 38 47 49 50 50 49 50 51 50 51 51 50 46 45 46 46 46 46 45 45 45 46 47 47 47 46 43 45 47 44 45 48 51 52 51 46 46 46 47 46 46 45 45 44 38 37 35 35 35 35
37 36 36 37 38 44 47 49 47 48 49 48 49 49 48 47 43 45 46 46 45 46 45 45 45 46 47 47 47 47 45 46 43 39 38 37 40 45 47 46 45 43 43 41 40 41 40 39 37 35 35 35 35 35
Lifted_Index
5 4 3 3 3 3 4 6 7 7 7 7 7 7 7 7 7 6 6 5 5 4 3 2 1 1 1 1 1 1 1 1 2 1 1 1 1 1 1 0 -0 -0 -0 0 0 1 1 1 0 -0 -1 -2 -2 -2
6 5 4 3 3 3 4 5 6 7 7 6 6 7 7 7 6 6 6 5 5 5 3 2 1 1 1 1 1 1 1 1 1 1 1 0 0 1 0 0 -0 -0 -0 -0 -0 0 -0 -0 -0 -1 -2 -2 -2 -2
7 6 5 3 2 3 3 5 6 6 6 6 6 6 6 6 6 6 5 5 5 4 3 2 1 1 1 1 1 1 0 0 1 1 1 1 1 1 1 0 0 -0 -0 -0 -0 -1 -1 -1 -1 -1 -2 -2 -2 -2
8 7 5 4 3 3 4 5 6 6 5 5 5 6 6 6 6 5 4 5 5 3 2 2 2 2 1 1 1 1 0 0 0 1 1 1 1 1 1 1 0 0 -0 -0 -0 -0 -1 -1 -1 -1 -1 -1 -2 -2
8 7 6 5 4 3 4 5 6 6 5 5 5 5 6 6 5 4 4 4 5 4 2 2 2 1 1 1 1 1 0 0 0 1 1 2 1 1 1 1 1 1 1 1 0 -0 -0 0 0 1 0 -0 -1 -1
9 8 7 6 4 3 4 5 6 6 5 4 4 5 5 6 5 4 3 4 5 4 3 2 1 0 0 0 1 1 1 1 1 1 2 2 1 1 1 2 1 1 1 1 1 0 0 1 1 1 1 1 0 -0
9 8 7 6 4 4 4 5 6 6 5 5 5 5 5 5 5 4 4 4 5 5 3 1 0 -1 -0 0 1 1 1 1 1 1 2 2 1 1 2 2 2 1 1 1 1 0 0 1 1 1 2 2 1 1
8 8 6 5 4 4 5 6 6 6 5 5 5 5 5 5 5 4 4 5 5 5 3 1 0 -0 -0 0 1 1 1 1 2 2 2 2 2 2 2 2 2 1 1 1 1 1 1 1 1 1 1 2 1 1
8 7 6 5 5 5 5 6 6 6 5 5 5 5 5 5 5 5 4 5 5 4 3 2 1 -0 -0 0 0 0 0 1 1 2 2 2 2 2 2 2 1 1 1 1 1 1 1 1 1 1 1 1 1 1
7 6 6 5 5 5 6 7 6 5 5 5 5 4 4 4 5 4 4 4 4 4 3 2 1 -0 -1 -0 -0 -0 -0 0 1 1 2 2 2 2 1 1 1 1 1 1 1 1 1 1 1 1 1 1 1 1
6 6 5 5 5 6 6 7 6 5 5 5 4 4 4 4 4 4 3 3 4 4 3 2 1 0 -0 -0 -0 -0 -0 -0 0 1 1 2 2 2 1 1 1 1 1 0 0 0 0 1 1 1 1 1 1 2
6 5 5 6 6 6 6 6 6 5 4 5 4 3 3 3 3 3 3 3 3 3 2 2 1 0 -0 -0 -0 -0 -0 -0 0 0 1 1 1 1 1 0 0 -0 -0 -0 -0 -0 -0 0 1 1 1 1 2 2
5 5 6 6 6 5 5 6 5 4 4 4 3 3 3 3 3 3 2 2 2 1 1 1 0 -0 -0 -0 -0 0 0 0 0 0 0 0 0 0 0 -0 -0 -1 -1 -1 -1 -1 -0 0 1 1 1 1 2 2
5 6 6 6 5 5 5 6 5 4 4 3 3 2 3 3 2 2 2 1 1 0 0 0 -0 -1 -1 -0 -0 -0 0 1 1 1 1 0 -0 -0 -0 -1 -1 -1 -1 -1 -1 -0 0 1 1 1 1 2 2 3
6 6 6 5 5 5 6 6 5 4 4 3 2 2 2 2 1 1 1 1 0 0 -0 0 -0 -0 -0 -0 -0 0 1 1 1 1 1 0 0 -0 -1 -1 -1 -2 -2 -2 -1 -1 0 1 1 2 2 2 3 3
6 6 5 5 4 5 6 6 5 4 3 3 2 2 2 1 1 1 0 0 -0 -0 0 0 0 0 0 0 0 1 1 1 1 0 -0 -0 -0 -1 -1 -2 -2 -2 -2 -2 -1 -1 -0 1 1 2 2 3 3 3
6 6 5 4 4 5 6 5 4 3 3 2 2 2 2 1 1 1 0 0 0 0 0 0 0 0 1 1 0 1 1 0 -0 -1 -1 -1 -1 -1 -2 -2 -2 -1 -1 -1 -1 -1 0 1 2 2 3 3 4 4
6 5 4 4 4 5 5 4 4 3 3 3 2 2 2 1 1 1 1 0 0 1 1 0 0 0 0 0 0 0 0 -0 -1 -1 -1 -1 -1 -1 -2 -2 -1 -1 -1 -1 -0 0 1 2 2 3 3 4 4 4
5 5 4 4 5 5 4 4 3 3 2 2 2 2 2 2 2 1 1 1 1 1 1 1 1 0 0 0 0 1 1 0 -0 -1 -1 -2 -1 -1 -1 -1 -1 -1 -0 -0 0 1 2 2 3 3 4 4 4 5
4 4 4 5 5 4 4 3 3 2 2 2 2 2 2 2 1 1 1 1 1 1 1 1 1 1 1 1 1 1 2 1 0 -1 -1 -1 -1 -1 -1 -1 -1 -0 -0 0 1 2 2 3 3 4 4 5 5 5
4 4 4 4 4 4 3 3 2 2 2 2 2 2 1 1 1 1 1 1 1 1 1 1 1 2 2 2 2 2 2 1 1 -0 -0 -0 -1 -1 -1 -1 -0 -0 0 1 1 2 2 3 3 4 5 5 6 6
4 4 4 4 4 3 3 2 2 1 2 2 1 1 1 1 1 1 1 1 1 1 1 1 1 2 2 2 2 2 1 1 1 0 0 0 -0 -1 -1 -0 -0 0 0 1 2 2 2 3 4 4 5 5 6 6
4 4 3 3 3 3 2 2 2 1 1 1 1 1 1 1 1 1 0 0 0 1 1 1 1 1 1 1 1 1 1 1 1 1 1 1 0 -0 -0 -0 -0 0 0 1 2 2 2 3 4 4 5 6 6 6
3 3 3 2 2 2 2 2 1 1 1 1 1 1 1 1 1 1 0 0 0 0 0 0 1 1 1 1 1 1 1 1 1 1 1 1 1 0 -0 -0 -0 -0 0 1 1 2 2 3 4 5 5 6 6 6
3 3 2 2 2 2 1 1 1 1 1 1 1 1 0 0 0 0 0 0 0 -0 -0 -0 0 0 0 0 0 1 1 1 0 0 0 0 0 0 0 -0 -1 -0 -0 0 0 1 2 3 4 5 5 5 6 6
3 3 2 2 1 1 1 0 0 0 0 0 0 0 0 0 0 0 0 0 -0 -0 -0 -0 -0 -0 -0 -0 0 0 0 0 0 -0 -0 -0 -0 -0 -0 -0 -1 -0 -0 -0 0 1 2 3 4 5 5 5 5 5
3 3 2 2 1 1 1 0 0 0 0 0 0 0 0 0 0 0 0 0 0 0 0 0 0 -0 -0 -0 -0 -0 -0 -0 -0 -0 -0 -0 -0 -0 -1 -0 -0 -0 -0 -0 -0 0 1 2 3 4 4 4 4 5
3 2 2 1 1 1 1 1 0 0 1 1 1 0 0 1 1 1 1 1 1 0 0 0 0 -0 -0 -0 -0 -0 -0 -0 -0 -0 -0 -0 -0 -1 -0 -0 0 0 0 -0 -0 0 1 2 3 4 4 4 4 5
2 2 1 1 1 1 1 1 1 1 1 1 1 1 1 1 2 2 2 1 1 1 1 1 1 0 -0 -0 -1 -0 -0 -0 -0 -0 -0 -0 -0 -0 -0 0 1 0 0 0 1 1 1 2 3 4 4 4 5 5
2 2 2 2 2 2 1 1 1 1 2 2 2 1 2 2 2 3 3 2 2 2 2 2 1 1 1 0 -0 -0 -0 -0 -0 -0 0 0 0 1 1 1 1 0 1 2 2 3 3 3 4 4 5 5 5 5
3 3 2 2 2 2 2 1 1 2 2 2 2 2 2 2 2 3 4 3 3 3 3 3 2 2 2 2 1 1 1 1 1 1 1 1 1 1 1 1 1 1 1 2 3 3 3 3 4 4 4 4 5 5
3 3 3 3 2 2 2 2 2 1 1 1 1 1 1 1 2 3 4 4 4 4 4 3 3 3 3 3 3 2 2 1 1 2 2 2 2 2 2 2 2 2 2 2 2 3 3 3 4 4 4 4 4 4
4 4 3 3 2 2 2 2 2 1 1 1 1 1 1 1 2 3 4 4 4 4 4 3 3 3 3 3 3 3 2 2 2 2 3 3 2 2 2 2 2 2 2 2 2 3 3 3 3 4 4 4 4 4